Location: Washington
(38.8950°N, 77.0370°W)
Time: 23:22:58
(UTC-04:00)

Tiangong 1 - Visible Passes

Search period start: 05 May 2015 00:00
Search period end: 15 May 2015 00:00
Orbit: 382 x 396 km, 42.8° (Epoch: 05 May)

Date Brightness Start Highest point End Pass type
(mag) Time Alt. Az. Time Alt. Az. Time Alt. Az.
05 May 3.6 03:26:14 22° NE 03:26:14 22° NE 03:27:41 10° ENE visible
05 May 1.6 04:58:43 10° WNW 05:01:50 59° NNE 05:04:57 10° E visible
06 May 2.0 04:03:10 41° NNW 04:03:36 45° N 04:06:39 10° E visible
07 May 4.2 03:07:57 12° ENE 03:07:57 12° ENE 03:08:19 10° ENE visible
07 May 0.9 04:40:16 20° WNW 04:42:21 88° S 04:45:30 10° ESE visible
08 May 2.6 03:45:18 33° E 03:45:18 33° E 03:47:13 10° E visible
08 May 2.0 05:18:02 10° W 05:20:48 28° SSW 05:23:33 10° SSE visible
09 May 1.4 04:23:02 46° S 04:23:02 46° S 04:25:42 10° SE visible
10 May 2.9 05:01:16 15° SSW 05:01:16 15° SSW 05:02:46 10° S visible
10 May 3.3 21:32:45 10° SSW 21:33:22 13° S 21:33:22 13° S visible
11 May 3.1 20:35:43 10° SSE 20:37:04 12° SE 20:38:30 10° ESE visible
11 May 2.7 22:10:21 10° WSW 22:11:55 26° SW 22:11:55 26° SW visible
12 May 1.5 21:12:10 10° SW 21:15:10 40° SSE 21:17:32 15° E visible
12 May 3.6 22:48:51 10° W 22:49:53 18° W 22:49:53 18° W visible
13 May 1.2 21:50:18 10° WSW 21:53:29 72° NNW 21:54:58 28° ENE visible
14 May 1.0 20:51:49 10° WSW 20:55:00 73° SSE 20:58:11 10° ENE visible
14 May 2.3 22:28:55 10° W 22:31:57 41° N 22:32:00 41° N visible
